Location: Table Mountain
(47.2500°N, 120.5778°W)
Time: 14:45:16
(UTC-07:00)

POLYITAN 1 - Visible Passes

Search period start: 21 March 2019 00:00
Search period end: 31 March 2019 00:00
Orbit: 592 x 612 km, 97.9° (Epoch: 20 March)

Date Brightness Start Highest point End Pass type
(mag) Time Alt. Az. Time Alt. Az. Time Alt. Az.
27 Mar ? 01:51:36 10° N 01:51:47 11° N 01:51:47 11° N visible
28 Mar ? 02:03:27 10° N 02:03:49 12° N 02:03:49 12° N visible
29 Mar ? 02:15:21 10° N 02:15:50 13° N 02:15:50 13° N visible
30 Mar ? 02:27:17 10° N 02:27:52 13° N 02:27:52 13° N visible
